Cadillac, MI

2:38 PM EDT on September 27, 2016 (GMT -0400)
Wexford County

Weather History for KCAD - October, 2012

Change the Weather History Date:

Wednesday, October 3, 2012

  Actual Average Record
Temperature  
Mean Temperature 50 °F -  
Max Temperature 61 °F 62 °F 83 °F (1971)
Min Temperature 38 °F 41 °F 21 °F (1952)
Degree Days  
Heating Degree Days 16    
Moisture  
Dew Point 49 °F    
Average Humidity 89    
Maximum Humidity 93    
Minimum Humidity 80    
Precipitation  
Precipitation 0.00 in - - ()
Sea Level Pressure  
Sea Level Pressure 29.98 in    
Wind  
Wind Speed 2 mph (SE)    
Max Wind Speed 9 mph    
Max Gust Speed -    
Visibility 8 miles    
Events Rain    
Averages and records for this station are not official NWS values.
T = Trace of Precipitation, MM = Missing Value Source: NWS Daily Summary

Daily Weather History Graph

Daily Weather History Graph

Search for Another Location

Airport or City:

Trip Planner

Search our weather history database for the weather conditions in past years. The results will help you decide how hot, cold, wet, or windy it might be!

Date:

Astronomy

Oct. 03, 2012 Rise Set
Actual Time 7:42 AM EDT 7:17 PM EDT
Civil Twilight 7:13 AM EDT 7:46 PM EDT
Nautical Twilight 6:39 AM EDT 8:20 PM EDT
Astronomical Twilight 6:05 AM EDT 8:54 PM EDT
Moon 9:00 PM EDT (10/3) 11:14 AM EDT (10/3)
Length of Visible Light 12h 33m
Length of Day
11h 35m
Waning Gibbous, 89% of the Moon is Illuminated
Oct 3
Waning Gibbous
Oct 8
Last Quarter
Oct 15
New
Oct 21
First Quarter
Oct 29
Full

Hourly Weather History & Observations

Time (EDT) Temp. Windchill Dew Point Humidity Pressure Visibility Wind Dir Wind Speed Gust Speed Precip Events Conditions
12:15 AM 43.9 °F - 41.4 °F 91% 29.97 in 1.0 mi Calm Calm - N/A   Mist
12:34 AM 42.3 °F - 39.9 °F 91% 29.97 in 1.2 mi Calm Calm - N/A   Mist
12:54 AM 42.4 °F - 39.7 °F 90% 29.97 in 0.8 mi Calm Calm - N/A   Unknown
1:15 AM 42.4 °F - 39.9 °F 91% 29.97 in 7.0 mi Calm Calm - N/A   Clear
1:34 AM 41.2 °F - 38.7 °F 91% 29.96 in 2.0 mi Calm Calm - N/A   Clear
1:54 AM 41.2 °F - 38.7 °F 91% 29.96 in 7.0 mi Calm Calm - N/A   Clear
2:15 AM 40.3 °F - 37.8 °F 91% 29.97 in 10.0 mi Calm Calm - N/A   Clear
2:34 AM 38.7 °F - 36.1 °F 91% 29.97 in 10.0 mi Calm Calm - N/A   Clear
2:54 AM 38.7 °F - 36.5 °F 92% 29.96 in 10.0 mi Calm Calm - N/A   Clear
3:15 AM 39.6 °F - 37.2 °F 91% 29.96 in 10.0 mi Calm Calm - N/A   Clear
3:34 AM 38.8 °F - 36.7 °F 92% 29.96 in 10.0 mi Calm Calm - N/A   Clear
3:53 AM 38.7 °F - 36.5 °F 92% 29.96 in 10.0 mi Calm Calm - N/A   Clear
4:15 AM 41.2 °F - 39.2 °F 93% 29.96 in 10.0 mi Calm Calm - N/A   Mostly Cloudy
4:34 AM 42.4 °F - 40.1 °F 91% 29.96 in 10.0 mi Calm Calm - N/A   Overcast
4:54 AM 43.9 °F - 41.5 °F 91% 29.96 in 10.0 mi Calm Calm - N/A   Overcast
5:15 AM 45.0 °F - 42.4 °F 91% 29.97 in 10.0 mi Calm Calm - N/A   Overcast
5:34 AM 43.9 °F - 41.2 °F 90% 29.96 in 10.0 mi Calm Calm - N/A   Overcast
5:54 AM 44.8 °F - 42.1 °F 90% 29.97 in 10.0 mi Calm Calm - N/A   Overcast
6:15 AM 44.6 °F - 41.5 °F 89% 29.98 in 10.0 mi Calm Calm - N/A   Scattered Clouds
6:34 AM 44.1 °F - 41.4 °F 90% 29.98 in 10.0 mi Calm Calm - N/A   Clear
6:54 AM 43.0 °F - 40.3 °F 90% 29.99 in 10.0 mi Calm Calm - N/A   Clear
7:15 AM 42.4 °F - 40.1 °F 91% 29.99 in 10.0 mi Calm Calm - N/A   Clear
7:34 AM 43.0 °F - 40.5 °F 91% 29.99 in 10.0 mi Calm Calm - N/A   Scattered Clouds
7:54 AM 43.9 °F - 41.4 °F 91% 29.99 in 10.0 mi Calm Calm - N/A   Mostly Cloudy
8:15 AM 44.4 °F 42.9 °F 41.9 °F 91% 29.98 in 10.0 mi NNW 3.5 mph - N/A   Mostly Cloudy
8:34 AM 45.1 °F - 42.8 °F 91% 29.99 in 10.0 mi Calm Calm - N/A   Mostly Cloudy
8:54 AM 50.5 °F - 47.8 °F 90% 29.98 in 10.0 mi ENE 4.6 mph - N/A   Overcast
9:14 AM 51.4 °F - 46.8 °F 84% 29.98 in 10.0 mi NE 4.6 mph - N/A   Overcast
9:34 AM 52.0 °F - 46.9 °F 83% 29.99 in 10.0 mi ENE 4.6 mph - N/A   Overcast
9:54 AM 53.1 °F - 47.8 °F 82% 29.99 in 10.0 mi Calm Calm - N/A   Overcast
10:14 AM 54.0 °F - 48.9 °F 83% 30.00 in 10.0 mi Calm Calm - N/A Rain Rain
10:34 AM 54.0 °F - 50.2 °F 87% 30.00 in 4.0 mi Calm Calm - N/A Rain Rain
10:54 AM 56.5 °F - 53.1 °F 88% 30.00 in 10.0 mi Calm Calm - N/A   Light Drizzle
11:14 AM 56.5 °F - 53.1 °F 88% 30.00 in 10.0 mi Calm Calm - N/A   Overcast
11:34 AM 56.5 °F - 53.1 °F 88% 30.00 in 10.0 mi Calm Calm - N/A   Overcast
11:54 AM 56.5 °F - 53.2 °F 89% 29.99 in 10.0 mi NNE 3.5 mph - N/A   Overcast
12:14 PM 56.5 °F - 53.2 °F 89% 29.99 in 10.0 mi ENE 3.5 mph - N/A   Overcast
12:34 PM 57.4 °F - 54.1 °F 89% 29.99 in 10.0 mi NNE 4.6 mph - N/A   Overcast
12:54 PM 59.0 °F - 55.4 °F 88% 29.99 in 10.0 mi NNE 3.5 mph - N/A   Overcast
1:14 PM 59.0 °F - 55.0 °F 87% 29.99 in 10.0 mi NNE 3.5 mph - N/A   Overcast
1:34 PM 59.0 °F - 54.7 °F 86% 29.98 in 10.0 mi ENE 4.6 mph - N/A   Overcast
1:54 PM 61.7 °F - 56.7 °F 84% 29.98 in 10.0 mi East 5.8 mph - N/A   Overcast
2:14 PM 61.7 °F - 55.6 °F 80% 29.98 in 10.0 mi ESE 9.2 mph - N/A   Overcast
2:34 PM 61.7 °F - 55.9 °F 81% 29.98 in 10.0 mi East 4.6 mph - N/A   Overcast
2:54 PM 61.7 °F - 56.3 °F 82% 29.97 in 10.0 mi ESE 6.9 mph - N/A   Overcast
3:14 PM 61.7 °F - 55.8 °F 81% 29.98 in 10.0 mi ESE 6.9 mph - N/A   Overcast
3:34 PM 61.7 °F - 55.8 °F 81% 29.98 in 10.0 mi ESE 9.2 mph - N/A   Overcast
3:54 PM 61.7 °F - 56.7 °F 84% 29.98 in 10.0 mi SE 5.8 mph - N/A   Overcast
4:14 PM 59.0 °F - 55.0 °F 87% 29.98 in 4.0 mi SE 4.6 mph - N/A   Overcast
4:35 PM 59.0 °F - 55.8 °F 89% 29.98 in 2.5 mi East 3.5 mph - N/A   Overcast
4:54 PM 59.0 °F - 55.9 °F 90% 29.98 in 3.0 mi Calm Calm - N/A   Overcast
5:14 PM 59.0 °F - 55.8 °F 89% 29.97 in 5.0 mi ESE 5.8 mph - N/A   Overcast
5:35 PM 59.0 °F - 55.6 °F 88% 29.98 in 5.0 mi ESE 4.6 mph - N/A   Overcast
5:54 PM 59.0 °F - 55.8 °F 89% 29.98 in 5.0 mi SE 4.6 mph - N/A   Drizzle
6:14 PM 59.0 °F - 55.9 °F 90% 29.98 in 3.0 mi SSE 3.5 mph - N/A   Heavy Drizzle
6:54 PM 59.0 °F - 56.3 °F 91% 29.99 in 3.0 mi Calm Calm - N/A   Drizzle
7:14 PM 59.0 °F - 56.3 °F 91% 29.99 in 1.8 mi South 3.5 mph - N/A Rain Light Rain
7:35 PM 59.0 °F - 56.3 °F 91% 29.99 in 4.0 mi South 3.5 mph - N/A Rain Heavy Rain
7:54 PM 59.0 °F - 56.3 °F 91% 29.99 in 5.0 mi South 5.8 mph - N/A Rain Rain
8:14 PM 59.0 °F - 56.3 °F 91% 30.00 in 7.0 mi South 5.8 mph - N/A Rain Rain
8:34 PM 59.0 °F - 56.3 °F 91% 29.99 in 10.0 mi South 6.9 mph - N/A   Overcast
8:54 PM 58.8 °F - 56.1 °F 91% 30.00 in 10.0 mi South 5.8 mph - N/A   Overcast
9:14 PM 57.7 °F - 55.0 °F 91% 30.01 in 7.0 mi South 5.8 mph - N/A   Overcast
9:34 PM 57.6 °F - 54.9 °F 91% 30.01 in 10.0 mi South 4.6 mph - N/A   Overcast
9:54 PM 56.5 °F - 53.8 °F 91% 30.01 in 7.0 mi SSW 4.6 mph - N/A   Overcast
10:14 PM 56.5 °F - 53.8 °F 91% 30.01 in 7.0 mi South 4.6 mph - N/A   Overcast
10:34 PM 56.5 °F - 53.8 °F 91% 30.01 in 7.0 mi South 3.5 mph - N/A   Overcast
10:54 PM 56.5 °F - 53.8 °F 91% 30.02 in 7.0 mi South 3.5 mph - N/A   Overcast
11:15 PM 56.5 °F - 53.8 °F 91% 30.01 in 5.0 mi South 5.8 mph - N/A   Overcast
11:34 PM 56.5 °F - 53.8 °F 91% 30.01 in 7.0 mi South 4.6 mph - N/A   Overcast
11:54 PM 56.5 °F - 53.8 °F 91% 30.01 in 7.0 mi South 4.6 mph - N/A   Overcast